AO-07 1 07530U 74089B 19297.40857466 -.00000025 00000-0 12681-3 0 9990 2 07530 101.7624 263.8354 0012458 99.8132 52.2467 12.53640478 56525 UO-11 1 14781U 84021B 19296.94436928 .00000060 00000-0 13524-4 0 9993 2 14781 097.6043 315.5966 0007003 260.0396 100.0028 14.83114135896626 LO-19 1 20442U 90005G 19296.89379305 -.00000009 00000-0 12884-4 0 9994 2 20442 098.6603 238.7418 0012526 130.8456 229.3816 14.32935673554538 HUBBLE 1 20580U 90037B 19297.78116098 .00000444 00000-0 16089-4 0 9992 2 20580 28.4694 84.9144 0002870 64.3509 72.8978 15.09285616420262 MET-2/21 1 22782U 93055A 19297.73588385 .00000064 00000-0 44177-4 0 9995 2 22782 82.5503 61.4487 0022488 176.0708 291.7011 13.83822225320573 AO-27 1 22825U 93061C 19297.39862406 .00000013 00000-0 22946-4 0 9995 2 22825 98.9141 289.0134 0008287 354.5882 5.5208 14.30069262360204 IO-26 1 22826U 93061D 19297.72026800 .00000012 00000-0 22490-4 0 9996 2 22826 98.9080 289.3182 0008577 341.5361 18.5508 14.30403430360456 FO-29 1 24278U 96046B 19297.84241722 -.00000030 00000-0 85824-5 0 9992 2 24278 98.5573 73.9824 0349301 267.7853 88.3260 13.53094334145139 NOAA-15 1 25338U 98030A 19297.47579473 .00000030 00000-0 31469-4 0 9995 2 25338 98.7401 318.4705 0009656 227.7249 132.3112 14.25935995115450 GO-32 1 25397U 98043D 19297.74137943 -.00000018 00000-0 11486-4 0 9990 2 25397 98.6993 236.3876 0002063 54.0074 306.1295 14.23672790106091 ISS 1 25544U 98067A 19297.86575123 .00000550 00000-0 17555-4 0 9992 2 25544 51.6445 78.2596 0006741 183.2066 336.2570 15.50216024195375 NO-44 1 26931U 01043C 19297.72299229 -.00000051 00000-0 12118-4 0 9993 2 26931 67.0531 33.2942 0007485 267.4008 92.6236 14.30556033943283 SO-50 1 27607U 02058C 19297.23326837 .00000003 00000-0 21217-4 0 9999 2 27607 64.5567 19.6510 0074389 231.6946 127.7453 14.75581638905855 CO-55 1 27844U 03031E 19297.55621140 .00000065 00000-0 49006-4 0 9998 2 27844 98.6853 303.8635 0010301 26.9734 333.1977 14.22201045846462 CO-57 1 27848U 03031J 19296.95149004 .00000051 00000-0 43014-4 0 9997 2 27848 098.6928 303.7935 0010413 039.7973 320.3967 14.21793138846197 RS-22 1 27939U 03042A 19297.74959553 .00000095 00000-0 25583-4 0 9995 2 27939 98.0591 71.2082 0013416 27.4488 332.7431 14.66811275859312 NOAA-18 1 28654U 05018A 19297.21600891 .00000097 00000-0 77096-4 0 9993 2 28654 99.0812 346.0056 0014470 175.4952 184.6352 14.12461044743515 CO-58 1 28895U 05043F 19296.93457248 .00000131 00000-0 34007-4 0 9996 2 28895 097.9778 075.4434 0015748 313.0663 046.9221 14.63702239745866 Falconsat-3 1 30776U 07006E 19297.57038267 .00002463 00000-0 68551-4 0 9996 2 30776 35.4359 354.2801 0002885 206.1648 153.8933 15.36662577700363 CO-65 1 32785U 08021C 19297.15516163 .00000198 00000-0 26942-4 0 9997 2 32785 97.5569 290.9044 0012595 193.9355 166.1517 14.88360996622644 AAUSAT2 1 32788U 08021F 19297.57475872 .00000809 00000-0 79205-4 0 9996 2 32788 97.4951 307.6407 0013062 126.8414 233.4007 14.94829031624024 DO-64 1 32789U 08021G 19297.09862418 .00000971 00000-0 68424-4 0 9991 2 32789 97.4509 342.8415 0013310 54.5960 305.6509 15.07190892626159 CO-66 1 32791U 08021J 19297.56245763 .00000385 00000-0 44326-4 0 9998 2 32791 97.5320 297.3786 0013609 165.7353 194.4253 14.90892584623167 RS-30 1 32953U 08025A 19297.69438313 .00000020 00000-0 75656-4 0 9997 2 32953 82.5021 65.1494 0019167 208.1989 151.8048 12.43091884518216 PRISM 1 33493U 09002B 19297.75545334 .00001035 00000-0 95827-4 0 9991 2 33493 98.1236 223.5721 0016470 115.8768 244.4152 14.96774820584309 NOAA-19 1 33591U 09005A 19297.48808243 .00000036 00000-0 44995-4 0 9994 2 33591 99.1893 291.7587 0014394 23.9578 336.2260 14.12380710551949 TISAT-1 1 36799U 10035E 19297.71633732 .00000501 00000-0 56558-4 0 9992 2 36799 98.1719 94.2523 0012852 31.6706 328.5282 14.91183362503845 JUGNU 1 37839U 11058B 19297.39158626 .00000323 00000-0 30160-4 0 9995 2 37839 19.9617 280.3867 0018673 295.2643 218.6114 14.12662319415339 SRMSAT 1 37841U 11058D 19297.40332858 .00000300 00000-0 19818-4 0 9993 2 37841 19.9733 339.7308 0011881 158.6829 311.6443 14.10641472414740 AO-71 1 37854U 11061E 19296.87687666 .00001670 00000-0 92043-4 0 9993 2 37854 101.7061 260.5049 0160256 047.9628 313.5096 15.06665658435699 HRBE 1 37855U 11061F 19297.79698339 .00001799 00000-0 96819-4 0 9992 2 37855 101.7184 259.1726 0172974 56.9436 304.8256 15.05674305436059 ALMASAT-1 1 38078U 12006B 19297.88776413 .00051422 48338-5 23386-3 0 9997 2 38078 69.4205 257.4661 0128454 60.6315 331.4421 15.72553260417578 HORYU-2 1 38340U 12025D 19297.11354042 .00000160 00000-0 31312-4 0 9997 2 38340 98.3162 339.4427 0012733 80.1104 280.1541 14.75763124399957 RS-40 1 38735U 12041C 19296.76413811 .00000029 00000-0 13673-3 0 9996 2 38735 82.4745 148.8800 0017302 322.1419 37.8442 12.42579601328336 BEESAT-3 1 39135U 13015F 19297.58867014 .00000910 00000-0 54236-4 0 9992 2 39135 64.8685 346.1172 0037759 289.2621 70.4422 15.17671760359653 BEESAT-2 1 39136U 13015G 19296.55381861 .00000748 00000-0 47276-4 0 9995 2 39136 64.8695 353.6464 0029163 294.6389 65.1700 15.17085774359411 ZACUBE-1 1 39417U 13066B 19297.59071850 .00000231 00000-0 35348-4 0 9996 2 39417 97.5625 303.9041 0058309 336.0252 23.8248 14.81165540319977 TRITON-1 1 39427U 13066M 19297.74664595 .00000201 00000-0 39717-4 0 9999 2 39427 97.6928 267.3197 0115048 115.1658 246.1532 14.67893725317128 GOMX-1 1 39430U 13066Q 19297.77687812 .00000125 00000-0 31806-4 0 9999 2 39430 97.7607 245.9842 0150124 210.0799 149.1727 14.59298935315287 LO-74 1 39440U 13066AA 19297.75343448 .00000257 00000-0 42535-4 0 9999 2 39440 97.6109 288.6829 0080991 29.8866 330.6933 14.75902841318867 AO-73 1 39444U 13066AE 19296.91262422 .00000263 00000-0 38711-4 0 9990 2 39444 097.5595 305.3286 0057297 331.5190 028.2897 14.81994417318180 SPROUT 1 39770U 14029E 19297.85353088 .00000501 00000-0 61403-4 0 9994 2 39770 97.8903 40.3591 0009593 31.1486 329.0297 14.87468237293887 DUCHIFAT-1 1 40021U 14033M 19297.75357722 .00000517 00000-0 58515-4 0 9995 2 40021 97.9257 222.7776 0012877 354.4158 5.6914 14.90713053290623 NANOSATCBR1 1 40024U 14033Q 19297.78113263 .00000327 00000-0 39882-4 0 9996 2 40024 97.9139 219.8919 0012259 358.7582 1.3603 14.89914570290514 EO-79 1 40025U 14033R 19297.78682765 .00000321 00000-0 40150-4 0 9999 2 40025 97.9047 217.2505 0012620 4.8125 355.3210 14.89004162290388 DTUSAT-2 1 40030U 14033W 19297.75091811 .00000240 00000-0 31806-4 0 9996 2 40030 97.8954 215.1532 0011972 1.0397 359.0842 14.88590633290302 EO-80 1 40032U 14033Y 19297.02190098 .00000232 00000-0 30974-4 0 9991 2 40032 97.8960 214.4278 0011990 4.2792 355.8525 14.88535054290188 ANTELSAT 1 40034U 14033AA 19297.18078916 .00000224 00000-0 40373-4 0 9999 2 40034 97.7414 158.8234 0059790 45.9482 314.6629 14.74150374287451 VELOX-1 1 40057U 14034E 19297.72354231 .00000263 00000-0 44313-4 0 9993 2 40057 98.2515 63.6903 0010783 177.9124 182.2136 14.77729784286673 DAURIA DX 1 1 40071U 14037C 19297.76382616 .00000096 00000-0 19823-4 0 9996 2 40071 98.4423 98.3130 0008511 167.9624 192.1791 14.81300901286214 UKUBE-1 1 40074U 14037F 19297.73252029 .00000236 00000-0 35533-4 0 9992 2 40074 98.4494 107.0677 0004799 147.1352 213.0166 14.84117771286641 HODOYOSHI-1 1 40299U 14070B 19297.73548170 .00000491 00000-0 23497-4 0 9992 2 40299 97.3401 14.7815 0011970 317.9331 159.0604 15.23483742275762 CHUBUSAT-1 1 40300U 14070C 19297.79059021 .00000553 00000-0 26993-4 0 9996 2 40300 97.3163 8.6673 0019538 329.6340 146.4996 15.22214914275500 QSAT-EOS 1 40301U 14070D 19297.83842425 .00001257 00000-0 50991-4 0 9997 2 40301 97.3173 12.4590 0024629 308.3270 189.3545 15.26229851275838 FIREBIRD FU3 1 40377U 15003B 19297.61466957 .00002573 00000-0 10339-3 0 9998 2 40377 99.1201 304.1354 0126551 24.7518 335.9711 15.19168785261348 FIREBIRD FU4 1 40378U 15003C 19297.73286606 .00002584 00000-0 10369-3 0 9998 2 40378 99.1204 304.3617 0126759 24.2401 336.4721 15.19180184261368 GRIFEX 1 40379U 15003D 19297.74321296 .00001769 00000-0 78197-4 0 9993 2 40379 99.1225 297.6542 0135357 44.6667 316.5370 15.15753730260982 NO-84 1 40654U 15025D 19297.37324196 .00009209 00000 0 12695-3 0 7572 2 40654 54.9913 309.5647 0127814 295.4420 63.3432 15.49066439132223 NO-83 1 40655U 15025E 19297.18804998 .00298690 51055-4 42796-3 0 9476 2 40655 54.9558 159.7433 0019622 25.6689 334.5292 16.04602827133973 DEORBITSAIL 1 40719U 15032E 19297.17347629 .00000381 00000-0 61381-4 0 9994 2 40719 97.8919 186.3019 0015008 254.4350 105.5204 14.76819809231074 NUDT-PHONESAT 1 40900U 15049B 19297.76468917 .00001667 00000-0 73371-4 0 9993 2 40900 97.4379 305.8706 0014376 95.4647 349.6704 15.23169437227150 XW-2A 1 40903U 15049E 19297.75519480 .00001480 00000-0 36365-4 0 9992 2 40903 97.3240 341.1666 0014650 45.7553 91.3529 15.42220035229988 XW-2C 1 40906U 15049H 19297.87181670 .00000626 00000-0 36159-4 0 9996 2 40906 97.4726 297.8628 0016263 111.9753 332.5977 15.15791761226417 XW-2D 1 40907U 15049J 19297.70188793 .00000329 00000-0 20532-4 0 9990 2 40907 97.4706 297.3772 0015656 109.8623 338.4211 15.15987440226404 LILACSAT-2 1 40908U 15049K 19297.69406124 .00000012 00000-0 42452-5 0 9995 2 40908 97.4840 296.0498 0017208 117.0985 331.5345 15.13869374226171 XW-2E 1 40909U 15049L 19297.73249403 .00000927 00000-0 48864-4 0 9993 2 40909 97.4626 300.4585 0015186 103.4535 344.4213 15.17970104226618 XW-2F 1 40910U 15049M 19297.73846525 .00000931 00000-0 49726-4 0 9996 2 40910 97.4662 299.6098 0016355 102.1255 344.4221 15.17482483226439 XW-2B 1 40911U 15049N 19297.73997593 .00000682 00000-0 38995-4 0 9998 2 40911 97.4724 298.0851 0015498 109.8085 335.5573 15.15918502226302 DCBB 1 40912U 15049P 19297.70624844 .00000829 00000-0 41789-4 0 9990 2 40912 97.4512 303.4213 0016474 85.8333 3.4091 15.19815835226759 TW-1C 1 40926U 15051B 19297.81738703 .00011277 00000-0 15057-3 0 9997 2 40926 97.1215 343.9193 0005667 250.6083 198.8200 15.58220805230096 TW-1A 1 40928U 15051D 19297.84855324 .00002194 00000-0 54441-4 0 9990 2 40928 97.1356 326.2894 0010136 336.8725 16.5383 15.41386648228908 IO-86 1 40931U 15052B 19297.14045359 .00000384 00000-0 -35458-4 0 9994 2 40931 5.9981 227.6653 0011199 163.2434 196.8986 14.76614514220130 LQSat 1 40958U 15057A 19297.26430786 -.00000000 00000-0 75887-5 0 9999 2 40958 97.8862 2.9298 0018019 187.6090 172.4847 14.73092847217589 AO-85 1 40967U 15058D 19297.17607737 -.00000002 00000 0 18867-4 0 8446 2 40967 64.7756 131.2593 0184836 160.9596 199.8542 14.76006217126554 ATHENOXAT-1 1 41168U 15077C 19297.40968962 .00002010 00000-0 70815-4 0 9990 2 41168 14.9895 359.9454 0011635 69.4403 290.7166 15.13855217213363 ChubuSat-2 1 41338U 16012B 19297.70887653 .00000350 00000-0 20487-4 0 9994 2 41338 31.0039 51.1794 0013944 291.4793 68.4355 15.00197198202152 ChubuSat-3 1 41339U 16012C 19297.73004408 .00000302 00000-0 16688-4 0 9992 2 41339 31.0105 48.9722 0013813 299.1525 60.7729 15.00368927202155 Horyu-4 1 41340U 16012D 19297.62575224 .00000530 00000-0 33500-4 0 9996 2 41340 31.0059 39.8020 0014113 318.3865 41.5696 15.01339436202255 OUFTI-1 1 41458U 16025C 19297.16268672 .00000976 00000-0 53896-4 0 9999 2 41458 98.1004 30.4913 0164399 288.5669 69.7760 15.06097785191758 e-st@r-II 1 41459U 16025D 19297.80827882 .00001417 00000-0 76487-4 0 9997 2 41459 98.1001 30.7569 0165819 287.7237 70.5943 15.05721624191822 AAUSAT4 1 41460U 16025E 19297.81931263 .00001076 00000-0 57869-4 0 9993 2 41460 98.0921 32.3392 0155841 279.2431 79.1202 15.07708865191975 LO-87 1 41557U 16033B 19297.80081416 .00001369 00000-0 53599-4 0 9995 2 41557 97.4145 24.5485 0013198 198.7173 161.3582 15.27464302189648 NuSat2 1 41558U 16033C 19297.80630540 .00001425 00000-0 52600-4 0 9999 2 41558 97.4178 26.0204 0012254 197.8340 162.2472 15.29380845189716 Lapan A3 1 41603U 16040E 19297.78475145 .00000010 00000-0 36319-5 0 9992 2 41603 97.3452 353.2317 0012381 316.5792 181.0887 15.19754371185198 Swayam 1 41607U 16040J 19297.15829675 .00001434 00000-0 62794-4 0 9994 2 41607 97.3516 356.7516 0011903 307.3480 52.6672 15.23577439185281 Pratham 1 41783U 16059A 19297.15290433 .00000043 00000-0 17554-4 0 9992 2 41783 98.0529 353.8229 0033098 345.4177 14.6067 14.63015490164181 AlSat 1N 1 41789U 16059G 19297.71603905 .00000088 00000-0 25794-4 0 9996 2 41789 98.0555 356.6496 0027812 332.9105 27.0636 14.64269940164386 ScatSat 1 41790U 16059H 19297.71615611 .00000008 00000-0 13007-4 0 9991 2 41790 98.1956 339.6229 0004655 298.6905 61.3818 14.50891316162895 TY-1 1 41844U 16066D 19297.70441000 .00000647 00000-0 29195-4 0 9991 2 41844 97.4066 303.5814 0016726 96.7581 352.6948 15.24447859164194 Pegasus-1 1 41846U 16066F 19297.10814776 .00000216 00000-0 43699-4 0 9998 2 41846 98.6981 339.2558 0366754 219.4266 137.9703 14.37633518154867 CAS-2T 1 41847U 16066G 19297.70756187 .00000068 00000-0 21170-4 0 9991 2 41847 98.6916 340.3874 0365305 213.8773 143.8593 14.38013327155395 EO-88 1 42017U 17008BX 19297.13468853 .00001404 00000-0 57713-4 0 9992 2 42017 97.3904 2.8460 0007919 83.1713 277.0426 15.25815023149359 nSIGHT1 1 42726U 98067MF 19297.72995763 .00031105 00000-0 19027-3 0 9999 2 42726 51.6345 11.4727 0005271 328.8914 31.1774 15.77041827137982 CAS-4B 1 42759U 17034B 19297.76448299 .00000128 00000-0 21375-4 0 9992 2 42759 43.0184 247.3353 0012377 334.6104 104.7355 15.09660801130192 CAS-4A 1 42761U 17034D 19297.78734171 .00000318 00000-0 32885-4 0 9993 2 42761 43.0189 246.6635 0012736 336.0457 104.0471 15.09740206130191 UCLSat 1 42765U 17036A 19297.20958350 .00001266 00000-0 56756-4 0 9999 2 42765 97.3366 352.4064 0012625 135.7774 224.4474 15.22971104129870 NIUSat 1 42766U 17036B 19297.71016060 .00000990 00000-0 47179-4 0 9991 2 42766 97.3361 350.9966 0016986 128.0222 232.2550 15.21293022129694 LituanicaSAT 2 1 42768U 17036D 19297.37563884 .00002051 00000-0 89471-4 0 9997 2 42768 97.3408 352.2558 0016402 127.7665 232.5060 15.23172081129748 Aalto 1 1 42775U 17036L 19297.12660076 .00000724 00000-0 35135-4 0 9992 2 42775 97.3347 350.7716 0015292 129.1632 231.0966 15.21489257129588 URSA MAIOR 1 42776U 17036M 19297.40459537 .00000883 00000-0 42020-4 0 9999 2 42776 97.3358 351.2332 0015129 128.1806 232.0795 15.21636222129635 Max Valier Sat 1 42778U 17036P 19297.39502990 .00000950 00000-0 44295-4 0 9992 2 42778 97.3402 352.1581 0013673 131.3513 228.8902 15.22198274129663 Pegasus 1 42784U 17036V 19296.86101824 .00001046 00000-0 47759-4 0 9996 2 42784 097.3371 351.8444 0013159 137.7673 222.4580 15.22705747129611 NUDATSat 1 42787U 17036Y 19296.90634351 .00001609 00000-0 69719-4 0 9995 2 42787 097.3418 352.7893 0010961 132.1231 228.0934 15.23773369129511 SUCHAI 1 1 42788U 17036Z 19297.09491885 .00001245 00000-0 55533-4 0 9995 2 42788 97.3376 352.4616 0012775 135.9547 224.2710 15.23160283129741 SKCUBE 1 42789U 17036AA 19296.72541768 .00001141 00000-0 51336-4 0 9993 2 42789 097.3373 352.0169 0012612 137.2229 222.9991 15.23042684129605 VZLUSAT 1 1 42790U 17036AB 19296.82791545 .00001541 00000-0 66886-4 0 9996 2 42790 097.3390 352.7107 0012219 135.6130 224.6089 15.23763445129658 VENTA 1 1 42791U 17036AC 19296.83005408 .00001140 00000-0 51281-4 0 9992 2 42791 097.3370 352.1696 0012272 137.1006 223.1191 15.23048938129619 Robusta 1B 1 42792U 17036AD 19296.83908626 .00001192 00000-0 53217-4 0 9995 2 42792 097.3373 352.3090 0012193 137.1839 223.0350 15.23220822129642 D-SAT 1 42794U 17036AF 19297.64346042 .00000237 00000-0 25702-4 0 9992 2 42794 97.5257 336.6224 0127981 75.3565 286.1803 14.91152398127403 TechnoSat 1 42829U 17042E 19297.79406689 .00000123 00000-0 17756-4 0 9992 2 42829 97.5461 185.2265 0014225 359.8219 0.2993 14.91012529124025 QIKCOM-1 1 42983U 98067NF 19297.76198365 .00004219 00000-0 58212-4 0 9997 2 42983 51.6397 56.9319 0003599 244.1109 115.9513 15.59633128113327 AO-91 1 43017U 17073E 19297.29735894 .00000506 00000-0 44283-4 0 9994 2 43017 97.7212 213.6602 0259263 102.8011 260.2304 14.78657994104119 EcAMSat 1 43019U 98067NG 19297.70615209 .00006987 00000-0 82431-4 0 9997 2 43019 51.6410 49.8645 0004034 228.1319 131.9331 15.62609172195734 PICSAT 1 43132U 18004X 19296.78008373 .00001200 00000-0 52747-4 0 9991 2 43132 97.4764 4.2814 0010244 160.0132 200.1508 15.23820237 98854 AO-92 1 43137U 18004AC 19297.24238940 .00001032 00000-0 45991-4 0 9999 2 43137 97.4752 4.6846 0009797 159.7537 200.4091 15.23658622 98914 TianYi 2 1 43155U 18008A 19297.86909597 .00001071 00000-0 67268-4 0 9998 2 43155 97.4748 7.6484 0016384 242.0885 208.6066 15.11291787 97184 Zhou Enlai 1 43156U 18008B 19297.77000839 .00000461 00000-0 31538-4 0 9993 2 43156 97.4798 7.4283 0013403 239.7622 269.4910 15.10797214 97139 TianYi 6 1 43158U 18008D 19297.78374161 .00000244 00000-0 18668-4 0 9996 2 43158 97.4730 6.7831 0012577 240.1921 267.5579 15.10372944 97091 S-Net G 1 43186U 18014G 19296.71998658 -.00000316 00000-0 -22560-4 0 9997 2 43186 97.7008 203.2643 0009944 306.2884 53.7418 14.96696080 94136 S-Net H 1 43187U 18014H 19297.32150159 -.00000328 00000-0 -23638-4 0 9992 2 43187 97.7007 203.8415 0009935 303.9387 56.0889 14.96695957 94221 S-Net J 1 43188U 18014J 19297.32132643 -.00000322 00000-0 -23104-4 0 9993 2 43188 97.7008 203.8623 0009931 304.0617 55.9661 14.96695740 94224 S-Net K 1 43189U 18014K 19297.78966277 -.00000333 00000-0 -24088-4 0 9996 2 43189 97.7004 204.2991 0009922 301.9633 58.0623 14.96695100 92846 FMN 1 1 43192U 18015A 19297.75056009 .00002032 00000-0 84952-4 0 9993 2 43192 97.4156 64.0304 0015654 198.1340 298.9906 15.24658699 95829 Shaonian Xing 1 43199U 18015H 19297.78932631 .00001479 00000-0 61881-4 0 9997 2 43199 97.3931 62.9181 0016031 210.4877 295.7481 15.25070919 95882 1KUNS-PF 1 43466U 98067NP 19297.73766258 .00028507 00000-0 22395-3 0 9991 2 43466 51.6363 42.4202 0001550 316.6708 43.4167 15.71275274 83013 UBAKUSAT 1 43467U 98067NQ 19297.84165318 .00016565 00000-0 16602-3 0 9999 2 43467 51.6367 49.8926 0001577 207.6106 152.4806 15.65674370 82936 Irazu 1 43468U 98067NR 19297.66702068 .00044752 00000-0 27361-3 0 9992 2 43468 51.6376 35.8760 0002393 333.9180 26.1699 15.76885074183082 EnduroSat One 1 43551U 98067NZ 19296.93542742 .00018069 00000-0 17472-3 0 9999 2 43551 51.6365 56.5910 0005323 273.1927 86.8459 15.66492758 72996 EQUISat 1 43552U 98067PA 19296.78379999 .00013096 00000-0 13854-3 0 9990 2 43552 51.6381 60.1219 0005601 267.8447 92.1907 15.64520417 72893 UiTMSat 1 1 43589U 98067PD 19297.72366233 .00017595 00000-0 18038-3 0 9999 2 43589 51.6354 55.8105 0005088 281.1428 78.8995 15.65042041 68778 Maya 1 1 43590U 98067PE 19297.58964725 .00017000 00000-0 17441-3 0 9993 2 43590 51.6358 56.4216 0005174 280.4586 79.5826 15.65051401 68688 Bhutan 1 1 43591U 98067PF 19297.70318662 .00017505 00000-0 17894-3 0 9993 2 43591 51.6368 55.7148 0005318 282.0449 77.9950 15.65119092 68706 SiriusSat 1 1 43595U 98067PG 19296.93229747 .00014083 00000-0 15122-3 0 9996 2 43595 51.6353 61.7841 0003067 237.7274 122.3424 15.64071134 67739 SiriusSat 2 1 43596U 98067PH 19297.16765732 .00014036 00000-0 15172-3 0 9995 2 43596 51.6365 61.1554 0003532 237.8294 122.2359 15.63903491 67766 Tanusha-3 1 43597U 98067PJ 19297.39147603 .00018734 00000-0 18136-3 0 9994 2 43597 51.6348 56.5614 0003299 261.7051 98.3571 15.66442107 67843 SurfSat 1 43614U 18070B 19296.88546461 .00002852 00000-0 76165-4 0 9999 2 43614 093.0354 056.2120 0016273 165.8282 194.3432 15.38040557061956 CP-7 DAVE 1 43615U 18070C 19297.09378828 .00002773 00000-0 74303-4 0 9998 2 43615 93.0359 56.2973 0016483 164.6717 195.5039 15.37943463 61987 ELFIN-B 1 43616U 18070D 19297.75811178 .00004499 00000-0 11712-3 0 9993 2 43616 93.0318 56.4787 0017208 165.6781 194.4964 15.38780612 62102 ELFIN-A 1 43617U 18070E 19297.81239313 .00004859 00000-0 12616-3 0 9990 2 43617 93.0374 56.8166 0016506 162.1644 198.0193 15.38868590 62117 STARS-Me Mother 1 43640U 98067PQ 19297.72874556 .00009449 00000-0 11901-3 0 9990 2 43640 51.6370 64.1472 0004889 217.3958 142.6696 15.60383982 59709 CubeBel 1 1 43666U 18083E 19297.72726922 .00000943 00000-0 49900-4 0 9992 2 43666 97.5125 321.2941 0016733 102.5662 349.7683 15.17779954 54701 Changshagaoxin 1 43669U 18083H 19297.76102345 .00000740 00000-0 40895-4 0 9995 2 43669 97.4990 320.2449 0012592 95.9295 264.3374 15.16937035 54648 Ten-Koh 1 43677U 18084G 19297.80620265 .00000221 00000-0 28667-4 0 9993 2 43677 97.8636 50.7914 0015288 215.2321 144.7888 14.90205253 53698 PO-101 1 43678U 18084H 19297.87217314 -.00000207 00000-0 -14925-4 0 9996 2 43678 97.8630 51.6572 0008768 235.0588 124.9826 14.91575795 53754 IRVINE 01 1 43693U 18088D 19297.06893635 .00002214 00000-0 95245-4 0 9996 2 43693 85.0371 233.9679 0020840 84.7046 275.6573 15.21812918 52733 QO-100 1 43700U 18090A 19296.80981972 .00000134 00000-0 00000-0 0 9991 2 43700 000.0175 247.0305 0001562 352.6937 109.5818 01.00271994003322 Reaktor Hello World 1 43743U 18096AA 19297.89659137 .00001028 00000-0 41690-4 0 9996 2 43743 97.4484 7.6898 0016782 241.3950 176.3072 15.26847409 50293 MinXSS-2 1 43758U 18099A 19296.88499645 .00000745 00000-0 72416-4 0 9994 2 43758 097.7344 007.3657 0014131 261.6613 098.3006 14.95486316048449 AO-95 1 43770U 18099N 19297.15697689 .00000534 00000-0 54322-4 0 9999 2 43770 97.7344 7.3252 0013089 268.5561 91.4160 14.94834053 48464 RANGE-B 1 43772U 18099Q 19297.13606828 .00000595 00000-0 59670-4 0 9992 2 43772 97.7398 7.5671 0012899 254.0061 105.9739 14.94962352 48451 RANGE-A 1 43773U 18099R 19297.74975729 .00000583 00000-0 58723-4 0 9994 2 43773 97.7289 7.7191 0012155 251.8863 108.1034 14.94851886 48542 MOVE-II 1 43780U 18099Y 19296.76328886 .00000530 00000-0 53525-4 0 9996 2 43780 97.7337 7.0185 0012068 267.4300 92.5539 14.95161481 48397 SNUSat 2 1 43782U 18099AA 19297.16157770 .00000378 00000-0 39747-4 0 9995 2 43782 97.7340 7.4553 0011335 254.0474 105.9498 14.95113041 48466 SnugLite 1 43784U 18099AC 19297.14452439 .00000681 00000-0 67155-4 0 9996 2 43784 97.7304 7.3335 0013663 262.7705 97.1963 14.95197986 48474 ITASat 1 1 43786U 18099AE 19297.74479255 .00000657 00000-0 65009-4 0 9998 2 43786 97.7357 8.1526 0013793 259.4855 100.4811 14.95194124 48569 EAGLET 1 1 43790U 18099AJ 19297.19445234 .00000152 00000-0 18924-4 0 9996 2 43790 97.7344 7.7588 0012151 266.9659 93.0172 14.95567250 48184 ESEO 1 43792U 18099AL 19296.79194285 -.00000124 00000-0 -59258-5 0 9997 2 43792 097.7322 007.2849 0011934 265.4001 094.5857 14.95534002048185 CSIM 1 43793U 18099AM 19297.76329334 .00000597 00000-0 58617-4 0 9990 2 43793 97.7301 8.1405 0011592 258.3341 101.6580 14.95804408 48306 Astrocast 0.1 1 43798U 18099AS 19297.74765308 .00000599 00000-0 58874-4 0 9995 2 43798 97.7335 8.3622 0011146 241.9210 118.0885 14.95768814 48567 JO-97 1 43803U 18099AX 19297.78477059 -.00000054 00000-0 36914-6 0 9999 2 43803 97.7314 8.0746 0013842 260.4930 99.4726 14.95338419 48565 Suomi 100 1 43804U 18099AY 19297.18217567 -.00000117 00000-0 -53324-5 0 9994 2 43804 97.7314 7.4765 0013896 262.9319 97.0322 14.95335111 48480 Al Farabi 2 1 43805U 18099AZ 19297.77432500 .00000012 00000-0 63523-5 0 9990 2 43805 97.7319 8.0911 0013884 260.8673 99.0977 14.95411595 48572 PWSat 2 1 43814U 18099BJ 19297.28623578 .00017613 00000-0 13172-2 0 9990 2 43814 97.7713 10.2818 0008661 238.4734 121.5663 15.02798687 47994 CHOMPTT 1 43855U 18104G 19297.66882819 .00000933 00000-0 38316-4 0 9995 2 43855 85.0382 331.8324 0016272 197.1701 162.8988 15.22555591 47497 ISAT 1 43879U 18111D 19297.81159237 .00000482 00000-0 48009-4 0 9996 2 43879 97.7086 203.9020 0012325 321.0492 38.9840 14.96059927 43090 UWE-4 1 43880U 18111E 19297.69577796 .00000861 00000-0 81246-4 0 9999 2 43880 97.7102 203.9376 0011334 323.8450 36.2005 14.96304445 43089 Sparrow 1 43881U 18111F 19297.21837867 .00000670 00000-0 64286-4 0 9999 2 43881 97.7103 203.5045 0011505 323.3037 36.7395 14.96349100 43013 Lume 1 1 43908U 18111AJ 19297.27459472 .00001125 00000-0 48338-4 0 9993 2 43908 97.2788 198.9816 0019817 260.8443 99.0553 15.24546553 45888 FO-98 1 43933U 19003B 19297.84659439 .00000515 00000-0 25592-4 0 9999 2 43933 97.2671 351.1817 0018191 359.5782 88.8065 15.21776925 42546 FO-99 1 43937U 19003F 19297.76724112 .00000982 00000-0 43360-4 0 9996 2 43937 97.2622 351.7204 0023884 343.9980 154.8571 15.23814340 42580 Delphini 1 1 44030U 98067PW 19297.73351658 .00012594 00000-0 16542-3 0 9999 2 44030 51.6366 69.4397 0004385 265.8159 94.2332 15.58909278 41501 MYSat 1 1 44045U 18092F 19297.70251875 .00001530 00000-0 54785-4 0 9992 2 44045 51.6463 110.7717 0012608 181.1943 178.9004 15.35430469 38901 AstroCast 0.2 1 44083U 19018F 19297.72890890 .00000572 00000-0 28536-4 0 9991 2 44083 97.4545 356.6087 0012325 282.0622 77.9232 15.21488558 31387 AISTechSat 3 1 44103U 19018AB 19297.71256010 .00000640 00000-0 30395-4 0 9995 2 44103 97.4424 356.6349 0012312 302.2910 176.9902 15.22787987 31404 AISat 1 1 44104U 19018AC 19297.74556381 .00000812 00000-0 28818-4 0 9991 2 44104 97.4957 0.5610 0058014 334.3690 25.4677 15.30646839 31598 Raavana-1 1 44329U 98067QE 19297.79714237 .00009663 00000-0 15612-3 0 9992 2 44329 51.6401 76.6408 0006997 197.3554 162.7198 15.53554899 20164 Uguisu 1 44330U 98067QF 19297.80043363 .00009619 00000-0 15569-3 0 9993 2 44330 51.6401 76.6619 0007034 195.8097 164.2675 15.53510533 20140 NepaliSat-1 1 44331U 98067QG 19297.72992725 .00009218 00000-0 14911-3 0 9995 2 44331 51.6401 76.9428 0007008 198.5158 161.5578 15.53586802 20145 Prox-1 1 44339U 19036A 19297.64247009 .00000724 00000-0 12291-3 0 9993 2 44339 23.9979 161.6074 0010424 88.8512 271.3166 14.52702717 17653 OBJECT H 1 44346U 19036H 19297.81459302 .00006201 00000-0 94596-4 0 9996 2 44346 28.5249 130.8477 0383917 310.7869 46.0010 14.97880392 18223 OBJECT J 1 44347U 19036J 19297.76285221 .00019286 00000-0 29558-3 0 9990 2 44347 28.5329 128.5286 0364272 314.3293 42.8008 15.02661807 18247 OBJECT K 1 44348U 19036K 19297.78104578 .00005262 00000-0 78217-4 0 9994 2 44348 28.5189 130.5118 0384017 311.0675 45.7349 14.98146074 18222 Armadillo 1 44352U 19036P 19297.81167109 .00006962 00000-0 10630-3 0 9994 2 44352 28.5337 129.9289 0379132 311.8505 45.0318 14.98979121 18175 NO-104 1 44354U 19036R 19297.72116758 .00006498 00000-0 96251-4 0 9998 2 44354 28.5330 130.1198 0382127 311.2327 45.5922 14.98921542 18201 NO-103 1 44355U 19036S 19297.73682052 .00010579 00000-0 15878-3 0 9995 2 44355 28.5334 129.2809 0376165 312.6393 44.3061 15.00365562 18217 Oculus-ASR 1 44356U 19036T 19297.86340011 .00023247 00000-0 32619-3 0 9994 2 44356 28.5282 125.3510 0360993 318.7422 38.6410 15.05260289 18273 CP9 1 44360U 19036X 19297.79168758 .00014987 00000-0 20306-3 0 9998 2 44360 28.5193 126.5876 0374676 317.1213 40.0745 15.03039072 18125 Move-IIb 1 44398U 19038N 19297.10994791 .00001241 00000-0 76105-4 0 9998 2 44398 97.5037 256.9484 0024222 222.5966 137.3386 15.11781650 16714 SONATE 1 44400U 19038Q 19296.84474482 .00000572 00000-0 37175-4 0 9992 2 44400 97.5052 256.7000 0024186 221.5029 138.4366 15.11713899 16670 BeeSat 9 1 44412U 19038AC 19296.83411691 .00000851 00000-0 53249-4 0 9997 2 44412 97.5047 256.7097 0021656 227.4596 132.4806 15.11893648 16366 JAISAT-1 1 44419U 19038F 19297.72435884 .00000826 00000-0 51139-4 0 9991 2 44419 97.5051 257.6699 0020550 223.8570 136.1030 15.12384798 16812 LightSail-2 1 44420U 19036AC 19296.87294311 .00005334 00000-0 12079-2 0 9991 2 44420 24.0059 166.2816 0010450 61.0274 299.1299 14.53392326 15685 Taurus 1 1 44530U 19059C 19297.83676230 .00000346 00000-0 11138-3 0 9993 2 44530 98.5842 11.5546 0015226 144.2474 215.9687 14.45261959 6165 /EX
